Location: Auckland
(36.8670°S, 174.7670°E)
Time: 14:20:19
(UTC+12:00)

Hubble Space Telescope - Pass Details

Date: 04 July 2019
Orbit: 536 x 540 km, 28.5° (Epoch: 17 August)

Event Time Altitude Azimuth Distance (km) Brightness Sun altitude
Exits shadow 06:59:34 - 291° (WNW) 2,657 3.9 -7.1°
Reaches altitude 10° 07:02:01 10° 303° (WNW) 1,794 3.1 -6.7°
Maximum altitude 07:05:28 25° 360° (N) 1,098 2.7 -6.0°
Drops below altitude 10° 07:08:55 10° 56° (NE) 1,793 5.2 -5.4°
Sets 07:11:27 0° 69° (ENE) 2,684 7.2 -4.9°
